Regional Weather Roundup
Issued by NWS

Home | Current Version | Previous Version | Text Only | Print | Product List | Glossary On
Versions: 1 2 3 4 5 6 7 8 9 10 11 12 13 14 15 16 17 18 19 20 21 22 23 24 25 26 27 28 29 30 31 32 33 34 35 36 37 38 39 40 41 42 43 44 45 46 47 48 49 50
000
ASUS44 KBMX 030710
RWRAL

ALABAMA REGIONAL WEATHER ROUNDUP
NATIONAL WEATHER SERVICE BIRMINGHAM AL
100 AM CST TUE MAR 03 2015

NOTE: "FAIR" INDICATES FEW OR NO CLOUDS BELOW 12,000 FEET
WITH NO SIGNIFICANT WEATHER AND/OR OBSTRUCTIONS TO VISIBILITY.

THE REMARK "TC" DENOTES TEMPERATURE IN DEGREES CELSIUS.

ALZ001>011-014-016>018-020-030800-
NORTH ALABAMA

CITY           SKY/WX    TMP DP  RH WIND       PRES   REMARKS
MUSCLE SHOALS  CLOUDY    45  40  82 CALM      30.21F
HUNTSVILLE     CLOUDY    47  43  86 E6        30.19F
DECATUR        CLOUDY    45  43  93 CALM      30.20F
HALEYVILLE       N/A     44  44 100 CALM      30.21F
GADSDEN        CLOUDY    50  45  81 CALM      30.21S
$$

ALZ012-013-022-023-030>036-040>044-030800-
WEST CENTRAL ALABAMA

CITY           SKY/WX    TMP DP  RH WIND       PRES   REMARKS
TUSCALOOSA     CLOUDY    50  49  96 CALM      30.20F FOG
$$

ALZ015-024>027-033>036-040>044-030800-
CENTRAL ALABAMA

CITY           SKY/WX    TMP DP  RH WIND       PRES   REMARKS
BIRMINGHAM     LGT RAIN  52  50  93 CALM      30.21F FOG
MONTGOMERY     FOG       59  57  94 CALM      30.20F VSB 1/2
SHELBY CO ARPT LGT RAIN  51  51 100 NE3       30.20F VSB 1/2
MAXWELL AFB    FOG       57  57 100 NE2       30.19F VSB 3/4
GREENVILLE     FOG       60  59  96 CALM      30.19F VSB 3/4
$$

ALZ019-021-028-029-037-038-045>048-030800-
EAST CENTRAL ALABAMA

CITY           SKY/WX    TMP DP  RH WIND       PRES   REMARKS
ANNISTON       CLOUDY    53  48  83 NE6       30.22F
ALEXANDER CITY FOG       57  53  87 CALM      30.21F VSB 1/4
AUBURN         CLOUDY    55  52  88 CALM      30.23F VSB 1/4
$$

ALZ051>064-030800-
SOUTHWEST ALABAMA

CITY           SKY/WX    TMP DP  RH WIND       PRES   REMARKS
MOBILE         FOG       60  32  34 SE5       30.19F VSB 1/4
BROOKLEY FIELD FOG       61  61 100 CALM      30.20F VSB 1/4
EVERGREEN      FOG       60  59  96 CALM      30.20F VSB 1/4
$$

ALZ049-050-065>069-030800-
SOUTHEAST ALABAMA

CITY           SKY/WX    TMP DP  RH WIND       PRES   REMARKS
DOTHAN         CLOUDY    60  59  96 CALM      30.23F FOG
OZARK          FOG       59  57  94 CALM      30.20S VSB 1/4
TROY           CLOUDY    60  59  96 CALM      30.21S FOG
EUFAULA        FOG       61  60  97 CALM      30.20F VSB 1/2
$$



USA.gov is the U.S. government's official web portal to all federal, state and local government web resources and services.